Flag for U.S.A. Weather past 2 weeks in French Lick, Indiana, U.S.A.

Now
73 °F

Clear.


Feels Like: 72 °F
Forecast: 68 / 82 °F
Wind: No wind

Location: Huntingburg Airport

Current Time: Aug 29, 2015 at 10:05:51 PM

Latest Report: Aug 29, 2015 at 9:35 PM


Visibility: 10 mi

Pressure: 30.04 "Hg

Humidity: 89%

Dew point: 70 °F

Location of French LickLocation

Historic Weather in French Lick — Graph

°F

French Lick temperature yesterday

Maximum temperature yesterday: 81 °F (at 3:35 PM)
Minimum temperature yesterday: 54 °F (at 7:55 AM)
Average temperature yesterday: 68 °F

Past Weeks' High & Low Weather Summary

 TemperatureHumidityPressure
High88 °F (Aug 15, 3:15 PM)94% (Aug 15, 1:35 AM)30.20 "Hg (Aug 15, 1:35 AM)
Low52 °F (Aug 25, 6:15 AM)39% (Aug 24, 2:35 PM)29.78 "Hg (Aug 19, 5:55 PM)
Average70 °F74%30.06 "Hg
* Reported Aug 14 8:15 PM — Aug 29 8:55 PM, French Lick, Weather by CustomWeather, © 2015

Note: Actual official high and low records may vary slightly from our data, if they occured in-between our weather recording intervals... More about our weather records

Advertising

French Lick weather history for previous 24 hours

 ConditionsComfort  
Time TempWeatherWind HumidityBarometerVisibility
8:55 PM
Sat, Aug 29
75 °FScattered clouds.No wind83%30.04 "Hg10 mi
8:35 PM75 °FScattered clouds.3 mph83%30.03 "Hg10 mi
8:15 PM79 °FSunny.No wind74%30.03 "Hg10 mi
7:55 PM79 °FSunny.No wind74%30.03 "Hg10 mi
7:35 PM81 °FSunny.3 mph70%30.03 "Hg10 mi
7:15 PM81 °FBroken clouds.No wind70%30.03 "Hg10 mi
6:55 PM82 °FBroken clouds.5 mph66%30.03 "Hg10 mi
6:35 PM82 °FScattered clouds.5 mph66%30.03 "Hg10 mi
5:55 PM84 °FSunny.No wind51%30.03 "Hg10 mi
5:35 PM84 °FSunny.3 mph51%30.03 "Hg10 mi
5:15 PM84 °FSunny.6 mph51%30.03 "Hg10 mi
4:55 PM84 °FScattered clouds.8 mph55%30.04 "Hg10 mi
4:35 PM84 °FBroken clouds.5 mph51%30.04 "Hg10 mi
4:15 PM86 °FSunny.3 mph49%30.04 "Hg10 mi
3:55 PM86 °FPassing clouds.7 mph49%30.05 "Hg10 mi
3:35 PM84 °FScattered clouds.7 mph58%30.06 "Hg10 mi
3:15 PM86 °FSunny.5 mph52%30.07 "Hg10 mi
2:55 PM88 °FSunny.12 mph55%30.07 "Hg10 mi
2:35 PM86 °FSunny.8 mph59%30.07 "Hg10 mi
2:15 PM86 °FSunny.8 mph59%30.08 "Hg10 mi
1:55 PM84 °FSunny.8 mph66%30.09 "Hg10 mi
1:35 PM84 °FSunny.12 mph62%30.09 "Hg10 mi
1:15 PM82 °FSunny.10 mph70%30.10 "Hg10 mi
12:55 PM82 °FSunny.8 mph66%30.11 "Hg10 mi
12:35 PM81 °FSunny.9 mph70%30.11 "Hg10 mi
12:15 PM82 °FPassing clouds.12 mph66%30.11 "Hg10 mi
11:55 AM81 °FSunny.12 mph70%30.11 "Hg10 mi
11:35 AM79 °FSunny.13 mph74%30.11 "Hg10 mi
11:15 AM79 °FSunny.10 mph74%30.11 "Hg10 mi
10:55 AM75 °FSunny.8 mph78%30.11 "Hg10 mi
10:35 AM75 °FSunny.7 mph74%30.11 "Hg10 mi
10:15 AM75 °FSunny.7 mph74%30.11 "Hg10 mi
9:55 AM73 °FSunny.8 mph78%30.11 "Hg10 mi
9:35 AM73 °FSunny.10 mph78%30.11 "Hg10 mi
9:15 AM72 °FSunny.8 mph78%30.11 "Hg10 mi
8:55 AM72 °FSunny.6 mph78%30.11 "Hg10 mi
8:35 AM70 °FPassing clouds.7 mph83%30.11 "Hg10 mi
7:55 AM70 °FPassing clouds.5 mph78%30.11 "Hg10 mi
7:35 AM68 °FClear.5 mph83%30.11 "Hg10 mi
7:15 AM66 °FClear.5 mph88%30.10 "Hg10 mi
6:55 AM66 °FClear.6 mph88%30.09 "Hg10 mi
6:15 AM70 °FClear.6 mph78%30.09 "Hg10 mi
5:55 AM70 °FClear.5 mph78%30.08 "Hg10 mi
5:35 AM70 °FClear.5 mph78%30.08 "Hg10 mi
5:15 AM70 °FClear.5 mph78%30.08 "Hg10 mi
4:55 AM70 °FClear.6 mph78%30.07 "Hg10 mi
4:15 AM68 °FClear.5 mph78%30.07 "Hg10 mi
3:55 AM70 °FClear.3 mph78%30.06 "Hg10 mi
3:35 AM70 °FClear.5 mph73%30.06 "Hg10 mi
3:15 AM68 °FClear.5 mph78%30.06 "Hg10 mi
2:55 AM66 °FClear.8 mph83%30.06 "Hg10 mi
1:55 AM66 °FClear.No wind83%30.08 "Hg10 mi
1:35 AM66 °FClear.3 mph83%30.08 "Hg10 mi
1:15 AM66 °FClear.5 mph83%30.08 "Hg10 mi
12:55 AM68 °FClear.7 mph78%30.09 "Hg10 mi
12:35 AM66 °FClear.6 mph83%30.09 "Hg10 mi
11:55 PM
Fri, Aug 28
66 °FClear.No wind83%30.09 "Hg10 mi
11:15 PM68 °FClear.No wind78%30.09 "Hg10 mi
10:55 PM66 °FClear.3 mph83%30.09 "Hg10 mi
10:35 PM70 °FClear.3 mph73%30.09 "Hg10 mi
10:15 PM68 °FClear.No wind78%30.09 "Hg10 mi
Weather by CustomWeather, © 2015

See weather overviewHow to use our weather pages